SL-8 R/B

Satellite information

Favourite Embed

Satellite Type and Status

ROCKET BODYIN ORBIT

Key statistics

Satellite SL-8 R/B at a glance.

Uptime

15164

Days in orbit

Revolutions

≈ 14.4

Per day

Orbit

LEO

Low Earth Orbit

Inclination

74.1

Latest

Satellite identification and parameters

Extended collection of information and parameters for SL-8 R/B.

Object identification

Identified? True

Debris? False

Object name: SL-8 R/B

International designator: 1984-056B

Object number (NORAD): 15032

Object ID (CCSDS): 15032

Country: COMMONWEALTH OF INDEPENDENT STATES (CIS)

Current information (Y/N): Y

RCS size: LARGE

Orbital parameters

Period: 100.275 minutes

Inclination: 74.0675 deg

SMA: 7149.72 km

Apoapsis: 784.425 km

Periapsis: 758.744 km

RAAN: 163.162 deg

Eccentricy: 0.00179598

Argument of periapsis: 263.3321 deg

Mean anomaly: 96.5788 deg

Mean motion: 14.36048966 rev/day

Mean motion (dot): 0.00000454 rev/day2

B* drag term: 0.00016489368 1/REarth

Two-line elements (TLE)

Creation date: Dec. 14, 2025, 3:07 a.m.

Reference frame: TEME

Reference center: EARTH

Epoch: Dec. 13, 2025, 4:49 p.m. UTC

TLE line 0: 0 SL-8 R/B

TLE line 1: 1 15032U 84056B 25347.70072251 .00000454 00000-0 16489-3 0 9993

TLE line 2: 2 15032 74.0675 163.1620 0017960 263.3321 96.5788 14.36048966171564

Live tracking on map

Real-time ground track for satellite SL-8 R/B.

In-orbit conjunctions

A list of the most updated potential collisions computed for object SL-8 R/B.

Target Orbit TCA Probability of collision Miss distance Type
FENGYUN 1C DEB SSO 2025-11-19 09:41:14 0.0001110191 374.0 (m) DEBRIS
NOAA 16 DEB SSO 2025-11-04 16:45:22 0.000124851 384.0 (m) DEBRIS
COSMOS 2251 DEB LEO 2024-11-11 16:09:21 0.0001721033 842.0 (m) DEBRIS
FENGYUN 1C DEB SSO 2024-07-01 09:07:25 0.0009284374 153.0 (m) DEBRIS

Associated space launch

Military communications satellite

SL-8 R/B was lifted into orbit during the mission ‘Kosmos-3M | Strela-2M 35’, on board a Kosmos-3M space rocket.

The launch took place on June 8, 1984, 11:28 a.m. from 132/1 (132L).

For more information about the launch, click the button.

Launch to space Kosmos-3M | Strela-2M 35
Kosmos-3M | Strela-2M 35

Agency: N/A

Status: Launch Successful

Launch date: June 8, 1984, 11:28 a.m. UTC

Rocket: Kosmos-3M

Launch pad: 132/1 (132L)

Location: Plesetsk Cosmodrome, Russian Federation

...

Latest news about this satellite

There are no fresh news available about this satellite. Check back as we update our databases every day.


Newsletter sign-up

Weekly statistics, charts and insights to help you stay on top of the space industry.